date,time,SUV Intensity [MED/Hr],UV Index,Daily total [MED],Since Last [MED]
20/04/2023,00:00:48,0.000,0.0,0.0,0.0
20/04/2023,00:01:49,0.001,0.0,0.0,0.0
20/04/2023,00:02:49,0.000,0.0,0.0,0.0
20/04/2023,00:03:49,0.000,0.0,0.0,0.0
20/04/2023,00:04:49,0.000,0.0,0.0,0.0
20/04/2023,00:05:49,0.001,0.0,0.0,0.0
20/04/2023,00:06:49,0.000,0.0,0.0,0.0
20/04/2023,00:07:49,0.000,0.0,0.0,0.0
20/04/2023,00:08:48,0.000,0.0,0.0,0.0
20/04/2023,00:09:49,-0.001,0.0,0.0,0.0
20/04/2023,00:10:49,0.000,0.0,0.0,0.0
20/04/2023,00:11:48,0.000,0.0,0.0,0.0
20/04/2023,00:12:48,0.001,0.0,0.0,0.0
20/04/2023,00:13:49,0.000,0.0,0.0,0.0
20/04/2023,00:14:48,0.001,0.0,0.0,0.0
20/04/2023,00:15:49,0.000,0.0,0.0,0.0
20/04/2023,00:16:49,0.000,0.0,0.0,0.0
20/04/2023,00:17:49,-0.001,0.0,0.0,0.0
20/04/2023,00:18:49,0.000,0.0,0.0,0.0
20/04/2023,00:19:48,0.000,0.0,0.0,0.0
20/04/2023,00:20:49,-0.000,0.0,0.0,0.0
20/04/2023,00:21:49,0.000,0.0,0.0,0.0
20/04/2023,00:22:49,0.001,0.0,0.0,0.0
20/04/2023,00:23:49,-0.000,0.0,0.0,0.0
20/04/2023,00:24:49,-0.001,0.0,0.0,0.0
20/04/2023,00:25:49,-0.001,0.0,0.0,0.0
20/04/2023,00:26:49,0.000,0.0,0.0,0.0
20/04/2023,00:27:49,0.000,0.0,0.0,0.0
20/04/2023,00:28:48,-0.000,0.0,0.0,0.0
20/04/2023,00:29:49,0.000,0.0,0.0,0.0
20/04/2023,00:30:49,0.000,0.0,0.0,0.0
20/04/2023,00:31:49,0.000,0.0,0.0,0.0
20/04/2023,00:32:49,0.001,0.0,0.0,0.0
20/04/2023,00:33:49,-0.000,0.0,0.0,0.0
20/04/2023,00:34:49,0.000,0.0,0.0,0.0
20/04/2023,00:35:48,0.000,0.0,0.0,0.0
20/04/2023,00:36:48,-0.000,0.0,0.0,0.0
20/04/2023,00:37:49,-0.001,0.0,0.0,0.0
20/04/2023,00:38:49,0.001,0.0,0.0,0.0
20/04/2023,00:39:49,0.001,0.0,0.0,0.0
20/04/2023,00:40:48,0.000,0.0,0.0,0.0
20/04/2023,00:41:49,-0.001,0.0,0.0,0.0
20/04/2023,00:42:49,0.001,0.0,0.0,0.0
20/04/2023,00:43:49,0.000,0.0,0.0,0.0
20/04/2023,00:44:49,0.000,0.0,0.0,0.0
20/04/2023,00:45:49,-0.000,0.0,0.0,0.0
20/04/2023,00:46:49,0.000,0.0,0.0,0.0
20/04/2023,00:47:49,0.000,0.0,0.0,0.0
20/04/2023,00:48:48,0.000,0.0,0.0,0.0
20/04/2023,00:49:49,0.000,0.0,0.0,0.0
20/04/2023,00:50:48,0.000,0.0,0.0,0.0
20/04/2023,00:51:48,-0.001,0.0,0.0,0.0
20/04/2023,00:52:49,-0.000,0.0,0.0,0.0
20/04/2023,00:53:49,0.001,0.0,0.0,0.0
20/04/2023,00:54:49,0.000,0.0,0.0,0.0
20/04/2023,00:55:49,-0.000,0.0,0.0,0.0
20/04/2023,00:56:49,0.000,0.0,0.0,0.0
20/04/2023,00:57:49,-0.000,0.0,0.0,0.0
20/04/2023,00:58:49,0.000,0.0,0.0,0.0
20/04/2023,00:59:48,0.000,0.0,0.0,0.0
20/04/2023,01:00:49,0.000,0.0,0.0,0.0
20/04/2023,01:01:49,0.001,0.0,0.0,0.0
20/04/2023,01:02:49,0.001,0.0,0.0,0.0
20/04/2023,01:03:49,-0.000,0.0,0.0,0.0
20/04/2023,01:04:49,0.000,0.0,0.0,0.0
20/04/2023,01:05:49,0.000,0.0,0.0,0.0
20/04/2023,01:06:48,0.000,0.0,0.0,0.0
20/04/2023,01:07:49,0.000,0.0,0.0,0.0
20/04/2023,01:08:49,0.000,0.0,0.0,0.0
20/04/2023,01:09:50,0.001,0.0,0.0,0.0
20/04/2023,01:10:48,0.001,0.0,0.0,0.0
20/04/2023,01:11:49,0.000,0.0,0.0,0.0
20/04/2023,01:12:49,0.000,0.0,0.0,0.0
20/04/2023,01:13:49,0.001,0.0,0.0,0.0
20/04/2023,01:14:49,0.000,0.0,0.0,0.0
20/04/2023,01:15:49,-0.001,0.0,0.0,0.0
20/04/2023,01:16:49,0.000,0.0,0.0,0.0
20/04/2023,01:17:49,-0.000,0.0,0.0,0.0
20/04/2023,01:18:49,0.000,0.0,0.0,0.0
20/04/2023,01:19:49,0.000,0.0,0.0,0.0
20/04/2023,01:20:49,0.000,0.0,0.0,0.0
20/04/2023,01:21:49,0.000,0.0,0.0,0.0
20/04/2023,01:22:49,0.000,0.0,0.0,0.0
20/04/2023,01:23:49,0.000,0.0,0.0,0.0
20/04/2023,01:24:49,0.000,0.0,0.0,0.0
20/04/2023,01:25:49,0.001,0.0,0.0,0.0
20/04/2023,01:26:49,-0.000,0.0,0.0,0.0
20/04/2023,01:27:49,0.000,0.0,0.0,0.0
20/04/2023,01:28:49,0.000,0.0,0.0,0.0
20/04/2023,01:29:49,0.000,0.0,0.0,0.0
20/04/2023,01:30:49,-0.001,0.0,0.0,0.0
20/04/2023,01:31:49,0.000,0.0,0.0,0.0
20/04/2023,01:32:48,0.001,0.0,0.0,0.0
20/04/2023,01:33:49,0.000,0.0,0.0,0.0
20/04/2023,01:34:49,0.000,0.0,0.0,0.0
20/04/2023,01:35:50,0.001,0.0,0.0,0.0
20/04/2023,01:36:48,0.000,0.0,0.0,0.0
20/04/2023,01:37:49,0.000,0.0,0.0,0.0
20/04/2023,01:38:49,-0.000,0.0,0.0,0.0
20/04/2023,01:39:49,0.000,0.0,0.0,0.0
20/04/2023,01:40:49,0.000,0.0,0.0,0.0
20/04/2023,01:41:48,-0.001,0.0,0.0,0.0
20/04/2023,01:42:49,0.000,0.0,0.0,0.0
20/04/2023,01:43:49,0.001,0.0,0.0,0.0
20/04/2023,01:44:49,0.001,0.0,0.0,0.0
20/04/2023,01:45:49,0.001,0.0,0.0,0.0
20/04/2023,01:46:49,-0.001,0.0,0.0,0.0
20/04/2023,01:47:49,-0.000,0.0,0.0,0.0
20/04/2023,01:48:49,0.000,0.0,0.0,0.0
20/04/2023,01:49:49,0.000,0.0,0.0,0.0
20/04/2023,01:50:49,-0.000,0.0,0.0,0.0
20/04/2023,01:51:49,0.001,0.0,0.0,0.0
20/04/2023,01:52:48,-0.001,0.0,0.0,0.0
20/04/2023,01:53:49,-0.000,0.0,0.0,0.0
20/04/2023,01:54:49,-0.000,0.0,0.0,0.0
20/04/2023,01:55:49,-0.000,0.0,0.0,0.0
20/04/2023,01:56:49,0.001,0.0,0.0,0.0
20/04/2023,01:57:49,0.001,0.0,0.0,0.0
20/04/2023,01:58:49,0.001,0.0,0.0,0.0
20/04/2023,01:59:49,0.001,0.0,0.0,0.0
20/04/2023,02:00:49,0.001,0.0,0.0,0.0
20/04/2023,02:01:49,0.000,0.0,0.0,0.0
20/04/2023,02:02:49,0.000,0.0,0.0,0.0
20/04/2023,02:03:49,0.000,0.0,0.0,0.0
20/04/2023,02:04:49,0.000,0.0,0.0,0.0
20/04/2023,02:05:49,0.001,0.0,0.0,0.0
20/04/2023,02:06:49,-0.000,0.0,0.0,0.0
20/04/2023,02:07:48,0.000,0.0,0.0,0.0
20/04/2023,02:08:49,0.000,0.0,0.0,0.0
20/04/2023,02:09:49,0.000,0.0,0.0,0.0
20/04/2023,02:10:48,0.001,0.0,0.0,0.0
20/04/2023,02:11:49,0.000,0.0,0.0,0.0
20/04/2023,02:12:49,0.001,0.0,0.0,0.0
20/04/2023,02:13:48,0.001,0.0,0.0,0.0
20/04/2023,02:14:49,-0.001,0.0,0.0,0.0
20/04/2023,02:15:49,0.000,0.0,0.0,0.0
20/04/2023,02:16:49,0.001,0.0,0.0,0.0
20/04/2023,02:17:49,0.001,0.0,0.0,0.0
20/04/2023,02:18:49,0.000,0.0,0.0,0.0
20/04/2023,02:19:49,0.001,0.0,0.0,0.0
20/04/2023,02:20:49,0.000,0.0,0.0,0.0
20/04/2023,02:21:49,0.000,0.0,0.0,0.0
20/04/2023,02:22:49,0.001,0.0,0.0,0.0
20/04/2023,02:23:49,0.001,0.0,0.0,0.0
20/04/2023,02:24:49,0.000,0.0,0.0,0.0
20/04/2023,02:25:49,0.000,0.0,0.0,0.0
20/04/2023,02:26:49,-0.000,0.0,0.0,0.0
20/04/2023,02:27:49,0.000,0.0,0.0,0.0
20/04/2023,02:28:49,0.000,0.0,0.0,0.0
20/04/2023,02:29:50,0.000,0.0,0.0,0.0
20/04/2023,02:30:49,0.000,0.0,0.0,0.0
20/04/2023,02:31:50,0.000,0.0,0.0,0.0
20/04/2023,02:32:50,0.001,0.0,0.0,0.0
20/04/2023,02:33:49,0.000,0.0,0.0,0.0
20/04/2023,02:34:49,-0.000,0.0,0.0,0.0
20/04/2023,02:35:49,0.001,0.0,0.0,0.0
20/04/2023,02:36:49,0.001,0.0,0.0,0.0
20/04/2023,02:37:49,-0.000,0.0,0.0,0.0
20/04/2023,02:38:49,-0.000,0.0,0.0,0.0
20/04/2023,02:39:49,0.001,0.0,0.0,0.0
20/04/2023,02:40:49,0.000,0.0,0.0,0.0
20/04/2023,02:41:49,0.001,0.0,0.0,0.0
20/04/2023,02:42:49,0.000,0.0,0.0,0.0
20/04/2023,02:43:49,-0.000,0.0,0.0,0.0
20/04/2023,02:44:49,0.001,0.0,0.0,0.0
20/04/2023,02:45:49,-0.000,0.0,0.0,0.0
20/04/2023,02:46:49,0.001,0.0,0.0,0.0
20/04/2023,02:47:49,0.002,0.0,0.0,0.0
20/04/2023,02:48:49,-0.000,0.0,0.0,0.0
20/04/2023,02:49:49,0.001,0.0,0.0,0.0
20/04/2023,02:50:50,0.001,0.0,0.0,0.0
20/04/2023,02:51:50,-0.000,0.0,0.0,0.0
20/04/2023,02:52:49,0.001,0.0,0.0,0.0
20/04/2023,02:53:49,0.000,0.0,0.0,0.0
20/04/2023,02:54:49,0.001,0.0,0.0,0.0
20/04/2023,02:55:49,0.001,0.0,0.0,0.0
20/04/2023,02:56:49,0.000,0.0,0.0,0.0
20/04/2023,02:57:49,0.000,0.0,0.0,0.0
20/04/2023,02:58:49,0.001,0.0,0.0,0.0
20/04/2023,02:59:50,0.001,0.0,0.0,0.0
20/04/2023,03:00:49,0.001,0.0,0.0,0.0
20/04/2023,03:01:50,0.001,0.0,0.0,0.0
20/04/2023,03:02:49,0.001,0.0,0.0,0.0
20/04/2023,03:03:49,0.001,0.0,0.0,0.0
20/04/2023,03:04:50,-0.000,0.0,0.0,0.0
20/04/2023,03:05:49,0.001,0.0,0.0,0.0
20/04/2023,03:06:49,0.001,0.0,0.0,0.0
20/04/2023,03:07:50,0.001,0.0,0.0,0.0
20/04/2023,03:08:49,0.000,0.0,0.0,0.0
20/04/2023,03:09:49,0.000,0.0,0.0,0.0
20/04/2023,03:10:49,-0.001,0.0,0.0,0.0
20/04/2023,03:11:49,0.000,0.0,0.0,0.0
20/04/2023,03:12:49,0.001,0.0,0.0,0.0
20/04/2023,03:13:49,0.001,0.0,0.0,0.0
20/04/2023,03:14:49,0.000,0.0,0.0,0.0
20/04/2023,03:15:49,0.000,0.0,0.0,0.0
20/04/2023,03:16:49,0.001,0.0,0.0,0.0
20/04/2023,03:17:49,-0.000,0.0,0.0,0.0
20/04/2023,03:18:49,0.001,0.0,0.0,0.0
20/04/2023,03:19:49,0.001,0.0,0.0,0.0
20/04/2023,03:20:50,-0.000,0.0,0.0,0.0
20/04/2023,03:21:49,-0.000,0.0,0.0,0.0
20/04/2023,03:22:49,0.000,0.0,0.0,0.0
20/04/2023,03:23:49,0.000,0.0,0.0,0.0
20/04/2023,03:24:49,-0.000,0.0,0.0,0.0
20/04/2023,03:25:49,0.001,0.0,0.0,0.0
20/04/2023,03:26:49,0.002,0.0,0.0,0.0
20/04/2023,03:27:49,0.002,0.0,0.0,0.0
20/04/2023,03:28:49,0.001,0.0,0.0,0.0
20/04/2023,03:29:49,0.001,0.0,0.0,0.0
20/04/2023,03:30:49,0.001,0.0,0.0,0.0
20/04/2023,03:31:49,0.000,0.0,0.0,0.0
20/04/2023,03:32:49,-0.001,0.0,0.0,0.0
20/04/2023,03:33:49,0.001,0.0,0.0,0.0
20/04/2023,03:34:49,0.001,0.0,0.0,0.0
20/04/2023,03:35:49,0.001,0.0,0.0,0.0
20/04/2023,03:36:49,0.001,0.0,0.0,0.0
20/04/2023,03:37:49,0.001,0.0,0.0,0.0
20/04/2023,03:38:49,0.001,0.0,0.0,0.0
20/04/2023,03:39:49,0.001,0.0,0.0,0.0
20/04/2023,03:40:49,0.000,0.0,0.0,0.0
20/04/2023,03:41:50,0.001,0.0,0.0,0.0
20/04/2023,03:42:49,0.001,0.0,0.0,0.0
20/04/2023,03:43:49,0.001,0.0,0.0,0.0
20/04/2023,03:44:49,0.001,0.0,0.0,0.0
20/04/2023,03:45:49,0.001,0.0,0.0,0.0
20/04/2023,03:46:49,0.001,0.0,0.0,0.0
20/04/2023,03:47:49,0.001,0.0,0.0,0.0
20/04/2023,03:48:50,0.001,0.0,0.0,0.0
20/04/2023,03:49:50,0.001,0.0,0.0,0.0
20/04/2023,03:50:49,-0.000,0.0,0.0,0.0
20/04/2023,03:51:49,0.001,0.0,0.0,0.0
20/04/2023,03:52:49,0.001,0.0,0.0,0.0
20/04/2023,03:53:49,0.001,0.0,0.0,0.0
20/04/2023,03:54:49,0.001,0.0,0.0,0.0
20/04/2023,03:55:49,0.000,0.0,0.0,0.0
20/04/2023,03:56:49,0.001,0.0,0.0,0.0
20/04/2023,03:57:50,0.001,0.0,0.0,0.0
20/04/2023,03:58:50,0.002,0.0,0.0,0.0
20/04/2023,03:59:49,0.001,0.0,0.0,0.0
20/04/2023,04:00:50,0.001,0.0,0.0,0.0
20/04/2023,04:01:50,0.000,0.0,0.0,0.0
20/04/2023,04:02:49,0.001,0.0,0.0,0.0
20/04/2023,04:03:50,-0.000,0.0,0.0,0.0
20/04/2023,04:04:49,0.001,0.0,0.0,0.0
20/04/2023,04:05:49,0.000,0.0,0.0,0.0
20/04/2023,04:06:49,0.001,0.0,0.0,0.0
20/04/2023,04:07:49,0.000,0.0,0.0,0.0
20/04/2023,04:08:49,0.001,0.0,0.0,0.0
20/04/2023,04:09:49,0.000,0.0,0.0,0.0
20/04/2023,04:10:49,-0.000,0.0,0.0,0.0
20/04/2023,04:11:49,0.001,0.0,0.0,0.0
20/04/2023,04:12:49,0.001,0.0,0.0,0.0
20/04/2023,04:13:49,0.000,0.0,0.0,0.0
20/04/2023,04:14:50,0.000,0.0,0.0,0.0
20/04/2023,04:15:50,0.001,0.0,0.0,0.0
20/04/2023,04:16:50,0.001,0.0,0.0,0.0
20/04/2023,04:17:49,0.001,0.0,0.0,0.0
20/04/2023,04:18:50,0.001,0.0,0.0,0.0
20/04/2023,04:19:49,-0.000,0.0,0.0,0.0
20/04/2023,04:21:11,0.001,0.0,0.0,0.0
20/04/2023,04:22:49,0.000,0.0,0.0,0.0
20/04/2023,04:23:49,0.001,0.0,0.0,0.0
20/04/2023,04:24:49,0.001,0.0,0.0,0.0
20/04/2023,04:25:50,0.000,0.0,0.0,0.0
20/04/2023,04:26:49,0.001,0.0,0.0,0.0
20/04/2023,04:27:49,0.000,0.0,0.0,0.0
20/04/2023,04:28:49,0.001,0.0,0.0,0.0
20/04/2023,04:29:49,0.001,0.0,0.0,0.0
20/04/2023,04:30:49,-0.000,0.0,0.0,0.0
20/04/2023,04:31:49,0.001,0.0,0.0,0.0
20/04/2023,04:32:50,0.001,0.0,0.0,0.0
20/04/2023,04:33:50,0.000,0.0,0.0,0.0
20/04/2023,04:34:49,0.001,0.0,0.0,0.0
20/04/2023,04:35:49,-0.000,0.0,0.0,0.0
20/04/2023,04:36:49,0.001,0.0,0.0,0.0
20/04/2023,04:37:50,0.001,0.0,0.0,0.0
20/04/2023,04:38:50,0.001,0.0,0.0,0.0
20/04/2023,04:39:49,0.001,0.0,0.0,0.0
20/04/2023,04:40:49,0.001,0.0,0.0,0.0
20/04/2023,04:41:48,0.001,0.0,0.0,0.0
20/04/2023,04:42:49,0.001,0.0,0.0,0.0
20/04/2023,04:43:50,0.001,0.0,0.0,0.0
20/04/2023,04:44:50,0.001,0.0,0.0,0.0
20/04/2023,04:45:49,0.001,0.0,0.0,0.0
20/04/2023,04:46:49,0.001,0.0,0.0,0.0
20/04/2023,04:47:49,0.002,0.0,0.0,0.0
20/04/2023,04:48:49,0.001,0.0,0.0,0.0
20/04/2023,04:49:49,0.002,0.0,0.0,0.0
20/04/2023,04:50:49,0.001,0.0,0.0,0.0
20/04/2023,04:52:11,0.001,0.0,0.0,0.0
20/04/2023,04:53:49,0.003,0.0,0.0,0.0
20/04/2023,04:54:49,0.002,0.0,0.0,0.0
20/04/2023,04:55:49,0.001,0.0,0.0,0.0
20/04/2023,04:56:50,0.002,0.0,0.0,0.0
20/04/2023,04:57:49,0.002,0.0,0.0,0.0
20/04/2023,04:58:49,0.002,0.0,0.0,0.0
20/04/2023,04:59:49,0.003,0.0,0.0,0.0
20/04/2023,05:00:49,0.003,0.0,0.0,0.0
20/04/2023,05:01:49,0.003,0.0,0.0,0.0
20/04/2023,05:02:49,0.002,0.0,0.0,0.0
20/04/2023,05:03:49,0.003,0.0,0.0,0.0
20/04/2023,05:04:50,0.004,0.0,0.0,0.0
20/04/2023,05:05:49,0.004,0.0,0.0,0.0
20/04/2023,05:06:49,0.004,0.0,0.0,0.0
20/04/2023,05:07:49,0.004,0.0,0.0,0.0
20/04/2023,05:08:49,0.005,0.0,0.0,0.0
20/04/2023,05:09:50,0.005,0.0,0.0,0.0
20/04/2023,05:10:50,0.005,0.0,0.0,0.0
20/04/2023,05:11:50,0.006,0.0,0.0,0.0
20/04/2023,05:12:47,0.005,0.0,0.0,0.0
20/04/2023,05:13:49,0.006,0.0,0.0,0.0
20/04/2023,05:14:49,0.007,0.0,0.0,0.0
20/04/2023,05:15:49,0.006,0.0,0.0,0.0
20/04/2023,05:16:49,0.007,0.0,0.0,0.0
20/04/2023,05:17:49,0.006,0.0,0.0,0.0
20/04/2023,05:18:49,0.007,0.0,0.001,0.001
20/04/2023,05:19:49,0.008,0.0,0.001,0.0
20/04/2023,05:20:49,0.008,0.0,0.001,0.0
20/04/2023,05:21:49,0.008,0.0,0.001,0.0
20/04/2023,05:22:50,0.010,0.0,0.001,0.0
20/04/2023,05:23:50,0.008,0.0,0.001,0.0
20/04/2023,05:24:49,0.009,0.0,0.001,0.0
20/04/2023,05:25:49,0.010,0.0,0.002,0.001
20/04/2023,05:26:49,0.011,0.0,0.002,0.0
20/04/2023,05:27:49,0.011,0.0,0.002,0.0
20/04/2023,05:28:49,0.011,0.0,0.002,0.0
20/04/2023,05:29:49,0.012,0.0,0.002,0.0
20/04/2023,05:30:50,0.013,0.0,0.002,0.0
20/04/2023,05:31:49,0.014,0.0,0.003,0.001
20/04/2023,05:32:49,0.013,0.0,0.003,0.0
20/04/2023,05:33:49,0.013,0.0,0.003,0.0
20/04/2023,05:34:50,0.015,0.0,0.003,0.0
20/04/2023,05:35:50,0.015,0.0,0.004,0.001
20/04/2023,05:36:49,0.016,0.0,0.004,0.0
20/04/2023,05:37:49,0.016,0.0,0.004,0.0
20/04/2023,05:38:49,0.017,0.0,0.004,0.0
20/04/2023,05:39:50,0.017,0.0,0.005,0.001
20/04/2023,05:40:50,0.018,0.0,0.005,0.0
20/04/2023,05:41:50,0.020,0.0,0.005,0.0
20/04/2023,05:42:49,0.019,0.0,0.006,0.001
20/04/2023,05:43:49,0.020,0.0,0.006,0.0
20/04/2023,05:44:49,0.020,0.0,0.006,0.0
20/04/2023,05:45:49,0.021,0.0,0.007,0.001
20/04/2023,05:46:50,0.023,0.0,0.007,0.0
20/04/2023,05:47:49,0.023,0.0,0.007,0.0
20/04/2023,05:48:49,0.024,0.0,0.008,0.001
20/04/2023,05:49:50,0.023,0.0,0.008,0.0
20/04/2023,05:50:50,0.026,0.0,0.009,0.001
20/04/2023,05:51:49,0.026,0.0,0.009,0.0
20/04/2023,05:52:50,0.028,0.0,0.009,0.0
20/04/2023,05:53:50,0.028,0.0,0.01,0.001
20/04/2023,05:54:49,0.029,0.0,0.01,0.0
20/04/2023,05:55:49,0.029,0.0,0.011,0.001
20/04/2023,05:56:49,0.030,0.0,0.011,0.0
20/04/2023,05:57:50,0.032,0.0,0.012,0.001
20/04/2023,05:58:49,0.033,0.0,0.012,0.0
20/04/2023,05:59:49,0.033,0.0,0.013,0.001
20/04/2023,06:00:49,0.033,0.0,0.013,0.0
20/04/2023,06:01:50,0.036,0.0,0.014,0.001
20/04/2023,06:02:50,0.036,0.0,0.015,0.001
20/04/2023,06:03:49,0.037,0.0,0.015,0.0
20/04/2023,06:04:49,0.038,0.0,0.016,0.001
20/04/2023,06:05:50,0.040,0.0,0.017,0.001
20/04/2023,06:06:49,0.040,0.0,0.017,0.0
20/04/2023,06:07:49,0.042,0.0,0.018,0.001
20/04/2023,06:08:50,0.043,0.0,0.019,0.001
20/04/2023,06:09:50,0.044,0.0,0.019,0.0
20/04/2023,06:10:49,0.044,0.0,0.02,0.001
20/04/2023,06:11:49,0.046,0.0,0.021,0.001
20/04/2023,06:12:50,0.048,0.0,0.022,0.001
20/04/2023,06:13:49,0.050,0.0,0.022,0.0
20/04/2023,06:14:49,0.050,0.0,0.023,0.001
20/04/2023,06:15:49,0.052,0.0,0.024,0.001
20/04/2023,06:16:49,0.053,0.0,0.025,0.001
20/04/2023,06:17:50,0.054,0.0,0.026,0.001
20/04/2023,06:18:49,0.056,0.0,0.027,0.001
20/04/2023,06:19:50,0.057,0.0,0.028,0.001
20/04/2023,06:20:50,0.059,0.0,0.029,0.001
20/04/2023,06:21:49,0.060,0.0,0.03,0.001
20/04/2023,06:22:49,0.062,0.0,0.031,0.001
20/04/2023,06:23:49,0.064,0.0,0.032,0.001
20/04/2023,06:24:49,0.065,0.0,0.033,0.001
20/04/2023,06:25:50,0.067,0.0,0.034,0.001
20/04/2023,06:26:49,0.068,0.0,0.035,0.001
20/04/2023,06:27:49,0.070,0.0,0.036,0.001
20/04/2023,06:28:49,0.072,0.0,0.037,0.001
20/04/2023,06:29:49,0.073,0.0,0.039,0.002
20/04/2023,06:30:49,0.075,0.0,0.04,0.001
20/04/2023,06:31:49,0.077,0.0,0.041,0.001
20/04/2023,06:32:50,0.079,0.0,0.042,0.001
20/04/2023,06:33:49,0.080,0.0,0.044,0.002
20/04/2023,06:34:49,0.081,0.0,0.045,0.001
20/04/2023,06:35:50,0.084,0.0,0.047,0.002
20/04/2023,06:36:50,0.086,0.0,0.048,0.001
20/04/2023,06:37:49,0.088,0.0,0.049,0.001
20/04/2023,06:38:50,0.090,0.0,0.051,0.002
20/04/2023,06:39:49,0.092,0.0,0.052,0.001
20/04/2023,06:40:50,0.093,0.0,0.054,0.002
20/04/2023,06:41:50,0.096,0.0,0.056,0.002
20/04/2023,06:42:50,0.098,0.0,0.057,0.001
20/04/2023,06:43:49,0.100,0.0,0.059,0.002
20/04/2023,06:44:50,0.103,0.0,0.06,0.001
20/04/2023,06:45:50,0.105,0.0,0.062,0.002
20/04/2023,06:46:51,0.107,0.0,0.064,0.002
20/04/2023,06:47:49,0.110,0.0,0.066,0.002
20/04/2023,06:48:50,0.112,0.0,0.068,0.002
20/04/2023,06:49:50,0.114,0.0,0.07,0.002
20/04/2023,06:50:49,0.117,0.0,0.071,0.001
20/04/2023,06:51:49,0.119,0.0,0.073,0.002
20/04/2023,06:52:49,0.121,0.0,0.075,0.002
20/04/2023,06:53:49,0.124,0.0,0.077,0.002
20/04/2023,06:54:49,0.127,0.0,0.08,0.003
20/04/2023,06:55:49,0.130,0.0,0.082,0.002
20/04/2023,06:56:50,0.132,0.0,0.084,0.002
20/04/2023,06:57:50,0.135,0.0,0.086,0.002
20/04/2023,06:58:49,0.137,0.0,0.088,0.002
20/04/2023,06:59:49,0.140,0.0,0.091,0.003
20/04/2023,07:00:50,0.143,0.0,0.093,0.002
20/04/2023,07:01:49,0.145,0.0,0.095,0.002
20/04/2023,07:02:50,0.148,0.0,0.098,0.003
20/04/2023,07:03:49,0.151,0.0,0.1,0.002
20/04/2023,07:04:50,0.155,0.0,0.103,0.003
20/04/2023,07:05:49,0.157,0.0,0.105,0.002
20/04/2023,07:06:50,0.159,0.0,0.108,0.003
20/04/2023,07:07:50,0.163,0.0,0.111,0.003
20/04/2023,07:08:50,0.165,0.0,0.114,0.003
20/04/2023,07:09:50,0.168,0.0,0.116,0.002
20/04/2023,07:10:50,0.171,0.0,0.119,0.003
20/04/2023,07:11:49,0.175,0.0,0.122,0.003
20/04/2023,07:12:49,0.178,0.0,0.125,0.003
20/04/2023,07:13:49,0.181,0.0,0.128,0.003
20/04/2023,07:14:49,0.184,0.0,0.131,0.003
20/04/2023,07:15:50,0.189,0.0,0.134,0.003
20/04/2023,07:16:49,0.191,0.0,0.137,0.003
20/04/2023,07:17:49,0.194,0.0,0.14,0.003
20/04/2023,07:18:49,0.198,0.0,0.144,0.004
20/04/2023,07:19:50,0.202,0.0,0.147,0.003
20/04/2023,07:20:50,0.205,0.0,0.15,0.003
20/04/2023,07:21:50,0.208,0.0,0.154,0.004
20/04/2023,07:22:50,0.212,0.0,0.157,0.003
20/04/2023,07:23:50,0.216,0.0,0.161,0.004
20/04/2023,07:24:49,0.219,1.0,0.164,0.003
20/04/2023,07:25:49,0.223,1.0,0.168,0.004
20/04/2023,07:26:49,0.227,1.0,0.172,0.004
20/04/2023,07:27:49,0.230,1.0,0.176,0.004
20/04/2023,07:28:52,0.234,1.0,0.18,0.004
20/04/2023,07:29:50,0.239,1.0,0.184,0.004
20/04/2023,07:30:49,0.242,1.0,0.188,0.004
20/04/2023,07:31:49,0.246,1.0,0.192,0.004
20/04/2023,07:32:49,0.250,1.0,0.196,0.004
20/04/2023,07:33:50,0.254,1.0,0.2,0.004
20/04/2023,07:34:50,0.258,1.0,0.204,0.004
20/04/2023,07:35:50,0.262,1.0,0.209,0.005
20/04/2023,07:36:49,0.266,1.0,0.213,0.004
20/04/2023,07:37:50,0.271,1.0,0.218,0.005
20/04/2023,07:38:50,0.275,1.0,0.222,0.004
20/04/2023,07:39:50,0.279,1.0,0.227,0.005
20/04/2023,07:40:49,0.284,1.0,0.231,0.004
20/04/2023,07:41:49,0.288,1.0,0.236,0.005
20/04/2023,07:42:49,0.291,1.0,0.241,0.005
20/04/2023,07:43:49,0.296,1.0,0.246,0.005
20/04/2023,07:44:49,0.300,1.0,0.251,0.005
20/04/2023,07:45:50,0.305,1.0,0.256,0.005
20/04/2023,07:46:49,0.309,1.0,0.261,0.005
20/04/2023,07:47:49,0.314,1.0,0.266,0.005
20/04/2023,07:48:49,0.319,1.0,0.271,0.005
20/04/2023,07:49:49,0.323,1.0,0.277,0.006
20/04/2023,07:50:49,0.327,1.0,0.282,0.005
20/04/2023,07:51:50,0.332,1.0,0.288,0.006
20/04/2023,07:52:50,0.336,1.0,0.293,0.005
20/04/2023,07:53:50,0.343,1.0,0.299,0.006
20/04/2023,07:54:49,0.347,1.0,0.305,0.006
20/04/2023,07:55:50,0.352,1.0,0.311,0.006
20/04/2023,07:56:50,0.357,1.0,0.316,0.005
20/04/2023,07:57:49,0.361,1.0,0.322,0.006
20/04/2023,07:58:50,0.367,1.0,0.329,0.007
20/04/2023,07:59:50,0.373,1.0,0.335,0.006
20/04/2023,08:00:49,0.378,1.0,0.341,0.006
20/04/2023,08:01:50,0.383,1.0,0.347,0.006
20/04/2023,08:02:50,0.388,1.0,0.354,0.007
20/04/2023,08:03:49,0.394,1.0,0.36,0.006
20/04/2023,08:04:50,0.398,1.0,0.367,0.007
20/04/2023,08:05:49,0.404,1.0,0.373,0.006
20/04/2023,08:06:49,0.409,1.0,0.38,0.007
20/04/2023,08:07:49,0.416,1.0,0.387,0.007
20/04/2023,08:08:49,0.420,1.0,0.394,0.007
20/04/2023,08:09:50,0.426,1.0,0.401,0.007
20/04/2023,08:10:50,0.432,1.0,0.408,0.007
20/04/2023,08:11:50,0.435,1.0,0.416,0.008
20/04/2023,08:12:49,0.443,1.0,0.423,0.007
20/04/2023,08:13:49,0.448,1.0,0.43,0.007
20/04/2023,08:14:50,0.452,1.0,0.438,0.008
20/04/2023,08:15:50,0.459,1.0,0.445,0.007
20/04/2023,08:16:50,0.465,1.0,0.453,0.008
20/04/2023,08:17:50,0.469,1.0,0.461,0.008
20/04/2023,08:18:50,0.476,1.0,0.469,0.008
20/04/2023,08:19:50,0.482,1.0,0.477,0.008
20/04/2023,08:20:49,0.488,1.0,0.485,0.008
20/04/2023,08:21:49,0.492,1.0,0.493,0.008
20/04/2023,08:22:50,0.499,1.0,0.501,0.008
20/04/2023,08:23:50,0.506,1.0,0.51,0.009
20/04/2023,08:24:49,0.510,1.0,0.518,0.008
20/04/2023,08:25:49,0.517,1.0,0.527,0.009
20/04/2023,08:26:49,0.521,1.0,0.535,0.008
20/04/2023,08:27:49,0.524,1.0,0.544,0.009
20/04/2023,08:28:50,0.533,1.0,0.553,0.009
20/04/2023,08:29:50,0.537,1.0,0.562,0.009
20/04/2023,08:30:49,0.544,1.0,0.571,0.009
20/04/2023,08:31:49,0.550,1.0,0.58,0.009
20/04/2023,08:32:49,0.557,1.0,0.589,0.009
20/04/2023,08:33:50,0.562,1.0,0.598,0.009
20/04/2023,08:34:50,0.569,1.0,0.608,0.01
20/04/2023,08:35:50,0.573,1.0,0.617,0.009
20/04/2023,08:36:50,0.581,1.0,0.627,0.01
20/04/2023,08:37:49,0.588,1.0,0.637,0.01
20/04/2023,08:38:50,0.595,1.0,0.647,0.01
20/04/2023,08:39:49,0.599,1.0,0.657,0.01
20/04/2023,08:40:50,0.607,1.0,0.667,0.01
20/04/2023,08:41:50,0.612,1.0,0.677,0.01
20/04/2023,08:42:49,0.619,1.0,0.687,0.01
20/04/2023,08:43:49,0.626,1.0,0.697,0.01
20/04/2023,08:44:50,0.630,1.0,0.708,0.011
20/04/2023,08:45:50,0.635,1.0,0.718,0.01
20/04/2023,08:46:50,0.644,1.0,0.729,0.011
20/04/2023,08:47:50,0.648,1.0,0.74,0.011
20/04/2023,08:48:49,0.654,2.0,0.751,0.011
20/04/2023,08:49:49,0.656,2.0,0.762,0.011
20/04/2023,08:50:49,0.667,2.0,0.772,0.01
20/04/2023,08:51:49,0.672,2.0,0.784,0.012
20/04/2023,08:52:49,0.678,2.0,0.795,0.011
20/04/2023,08:53:50,0.687,2.0,0.806,0.011
20/04/2023,08:54:50,0.693,2.0,0.818,0.012
20/04/2023,08:55:50,0.699,2.0,0.829,0.011
20/04/2023,08:56:50,0.704,2.0,0.841,0.012
20/04/2023,08:57:50,0.710,2.0,0.853,0.012
20/04/2023,08:58:49,0.715,2.0,0.865,0.012
20/04/2023,08:59:50,0.722,2.0,0.877,0.012
20/04/2023,09:00:49,0.728,2.0,0.889,0.012
20/04/2023,09:01:50,0.734,2.0,0.901,0.012
20/04/2023,09:02:50,0.740,2.0,0.913,0.012
20/04/2023,09:03:50,0.746,2.0,0.926,0.013
20/04/2023,09:04:50,0.752,2.0,0.938,0.012
20/04/2023,09:05:49,0.755,2.0,0.951,0.013
20/04/2023,09:06:50,0.763,2.0,0.963,0.012
20/04/2023,09:07:49,0.769,2.0,0.976,0.013
20/04/2023,09:08:50,0.777,2.0,0.989,0.013
20/04/2023,09:09:50,0.782,2.0,1.002,0.013
20/04/2023,09:10:50,0.788,2.0,1.015,0.013
20/04/2023,09:11:50,0.797,2.0,1.028,0.013
20/04/2023,09:12:49,0.802,2.0,1.042,0.014
20/04/2023,09:13:50,0.809,2.0,1.055,0.013
20/04/2023,09:14:49,0.816,2.0,1.069,0.014
20/04/2023,09:15:49,0.825,2.0,1.082,0.013
20/04/2023,09:16:50,0.828,2.0,1.096,0.014
20/04/2023,09:17:50,0.833,2.0,1.11,0.014
20/04/2023,09:18:50,0.838,2.0,1.124,0.014
20/04/2023,09:19:50,0.848,2.0,1.138,0.014
20/04/2023,09:20:49,0.850,2.0,1.152,0.014
20/04/2023,09:21:50,0.856,2.0,1.166,0.014
20/04/2023,09:22:50,0.862,2.0,1.18,0.014
20/04/2023,09:23:50,0.869,2.0,1.195,0.015
20/04/2023,09:24:50,0.875,2.0,1.209,0.014
20/04/2023,09:25:50,0.880,2.0,1.224,0.015
20/04/2023,09:26:50,0.888,2.0,1.239,0.015
20/04/2023,09:27:49,0.893,2.0,1.254,0.015
20/04/2023,09:28:50,0.897,2.0,1.269,0.015
20/04/2023,09:29:50,0.909,2.0,1.284,0.015
20/04/2023,09:30:49,0.911,2.0,1.299,0.015
20/04/2023,09:31:50,0.916,2.0,1.314,0.015
20/04/2023,09:32:49,0.927,2.0,1.329,0.015
20/04/2023,09:33:50,0.936,2.0,1.345,0.016
20/04/2023,09:34:49,0.934,2.0,1.361,0.016
20/04/2023,09:35:50,0.945,2.0,1.376,0.015
20/04/2023,09:36:50,0.952,2.0,1.392,0.016
20/04/2023,09:37:49,0.959,2.0,1.408,0.016
20/04/2023,09:38:50,0.962,2.0,1.424,0.016
20/04/2023,09:39:50,0.966,2.0,1.44,0.016
20/04/2023,09:40:50,0.976,2.0,1.456,0.016
20/04/2023,09:41:50,0.986,2.0,1.473,0.017
20/04/2023,09:42:49,0.990,2.0,1.489,0.016
20/04/2023,09:43:50,0.999,2.0,1.506,0.017
20/04/2023,09:44:49,1.005,2.0,1.522,0.016
20/04/2023,09:45:49,1.012,2.0,1.539,0.017
20/04/2023,09:46:50,1.015,2.0,1.556,0.017
20/04/2023,09:47:50,1.020,2.0,1.573,0.017
20/04/2023,09:48:50,1.025,2.0,1.59,0.017
20/04/2023,09:49:50,1.030,2.0,1.607,0.017
20/04/2023,09:50:50,1.035,2.0,1.624,0.017
20/04/2023,09:51:50,1.044,2.0,1.642,0.018
20/04/2023,09:52:50,1.049,2.0,1.659,0.017
20/04/2023,09:53:50,1.057,2.0,1.677,0.018
20/04/2023,09:54:50,1.063,2.0,1.694,0.017
20/04/2023,09:55:50,1.068,2.0,1.712,0.018
20/04/2023,09:56:51,1.075,2.0,1.73,0.018
20/04/2023,09:57:50,1.080,2.0,1.748,0.018
20/04/2023,09:58:49,1.084,2.0,1.766,0.018
20/04/2023,09:59:49,1.090,3.0,1.784,0.018
20/04/2023,10:00:49,1.092,3.0,1.802,0.018
20/04/2023,10:01:50,1.106,3.0,1.82,0.018